Change the Weather History Date:

Sunday, November 4, 2012

  Actual Average Record
Temperature  
Mean Temperature 45 °F -  
Max Temperature 52 °F 50 °F 77 °F (1987)
Min Temperature 38 °F 34 °F 20 °F (1984)
Degree Days  
Heating Degree Days 20    
Moisture  
Dew Point 31 °F    
Average Humidity 60    
Maximum Humidity 71    
Minimum Humidity 45    
Precipitation  
Precipitation 0.00 in - - ()
Sea Level Pressure  
Sea Level Pressure 29.85 in    
Wind  
Wind Speed 10 mph (WNW)    
Max Wind Speed 16 mph    
Max Gust Speed 22 mph    
Visibility 10 miles    
Events      
Averages and records for this station are not official NWS values.
T = Trace of Precipitation, MM = Missing Value Source: NWS Daily Summary

Daily Weather History Graph

Daily Weather History Graph

Search for Another Location

Airport or City:

Trip Planner

Search our weather history database for the weather conditions in past years. The results will help you decide how hot, cold, wet, or windy it might be!

Date:

Astronomy

Nov. 04, 2012 Rise Set
Actual Time 6:22 AM EST 4:30 PM EST
Civil Twilight 5:52 AM EST 5:00 PM EST
Nautical Twilight 5:18 AM EST 5:34 PM EST
Astronomical Twilight 4:45 AM EST 6:07 PM EST
Moon 9:04 PM EST (11/4) 11:05 AM EST (11/4)
Length of Visible Light 11h 08m
Length of Day
10h 08m
Waning Gibbous, 72% of the Moon is Illuminated
Nov 4
Waning Gibbous
Nov 6
Last Quarter
Nov 13
New
Nov 20
First Quarter
Nov 28
Full

Hourly Weather History & Observations

Time (EST) Temp. Windchill Dew Point Humidity Pressure Visibility Wind Dir Wind Speed Gust Speed Precip Events Conditions
12:55 AM 43.3 °F 37.7 °F 31.3 °F 62% 29.76 in 10.0 mi WNW 10.4 mph - N/A   Overcast
1:55 AM 42.8 °F 37.0 °F 31.3 °F 64% 29.76 in 10.0 mi WNW 10.4 mph - N/A   Mostly Cloudy
1:55 AM 42.8 °F 38.6 °F 32.0 °F 66% 29.78 in 10.0 mi West 6.9 mph - N/A   Overcast
2:55 AM 43.0 °F 37.7 °F 32.2 °F 66% 29.78 in 10.0 mi WNW 9.2 mph - N/A   Overcast
3:55 AM 43.0 °F 38.8 °F 32.7 °F 67% 29.79 in 10.0 mi WNW 6.9 mph - N/A   Overcast
4:55 AM 42.6 °F 38.4 °F 32.2 °F 67% 29.80 in 10.0 mi NW 6.9 mph 17.3 mph N/A   Mostly Cloudy
5:55 AM 40.8 °F 36.2 °F 32.2 °F 71% 29.81 in 10.0 mi West 6.9 mph - N/A   Partly Cloudy
6:55 AM 41.0 °F 35.8 °F 32.0 °F 70% 29.83 in 10.0 mi West 8.1 mph - N/A   Partly Cloudy
7:55 AM 43.9 °F 37.9 °F 32.5 °F 64% 29.85 in 10.0 mi WNW 11.5 mph - N/A   Partly Cloudy
8:55 AM 46.2 °F 40.5 °F 32.2 °F 58% 29.85 in 10.0 mi WNW 12.7 mph - N/A   Partly Cloudy
9:55 AM 49.1 °F - 32.4 °F 53% 29.86 in 10.0 mi West 9.2 mph - N/A   Scattered Clouds
10:55 AM 51.3 °F - 32.0 °F 48% 29.84 in 10.0 mi West 13.8 mph - N/A   Scattered Clouds
11:55 AM 52.5 °F - 32.2 °F 46% 29.84 in 10.0 mi West 10.4 mph 21.9 mph N/A   Scattered Clouds
12:55 PM 52.3 °F - 31.6 °F 45% 29.83 in 10.0 mi West 15.0 mph 20.7 mph N/A   Scattered Clouds
1:55 PM 48.9 °F - 30.0 °F 48% 29.83 in 10.0 mi WNW 13.8 mph - N/A   Scattered Clouds
2:55 PM 46.8 °F - 30.2 °F 53% 29.84 in 10.0 mi West 11.5 mph - N/A   Mostly Cloudy
3:55 PM 45.9 °F 39.1 °F 29.3 °F 52% 29.86 in 10.0 mi WNW 16.1 mph - N/A   Scattered Clouds
4:55 PM 42.4 °F 36.5 °F 28.2 °F 57% 29.88 in 10.0 mi WNW 10.4 mph - N/A   Scattered Clouds
5:55 PM 41.2 °F 34.5 °F 28.0 °F 60% 29.90 in 10.0 mi WNW 11.5 mph - N/A   Scattered Clouds
6:55 PM 39.7 °F 33.7 °F 28.0 °F 63% 29.91 in 10.0 mi WNW 9.2 mph - N/A   Partly Cloudy
7:55 PM 38.5 °F 33.4 °F 28.0 °F 66% 29.92 in 10.0 mi WNW 6.9 mph - N/A   Partly Cloudy
8:55 PM 38.3 °F 34.8 °F 28.8 °F 69% 29.94 in 10.0 mi WNW 4.6 mph - N/A   Mostly Cloudy
9:55 PM 38.7 °F 34.3 °F 28.2 °F 66% 29.94 in 10.0 mi WNW 5.8 mph - N/A   Overcast
10:55 PM 38.5 °F 31.6 °F 27.5 °F 65% 29.94 in 10.0 mi NW 10.4 mph - N/A   Overcast